Location: ??????????
(48.4699°N, 37.9573°E)
Time: 19:32:45
(UTC+00:00)

Cosmos 1315 Rocket - Pass Details

Date: 20 January 2021
Orbit: 530 x 567 km, 81.2° (Epoch: 01 March)

Event Time Altitude Azimuth Distance (km) Brightness Sun altitude
Rises 14:37:51 0° 352° (N) 2,699 6.2 -5.2°
Reaches altitude 10° 14:40:04 10° 358° (N) 1,808 5.2 -5.5°
Maximum altitude 14:43:57 51° 75° (ENE) 687 2.9 -6.1°
Drops below altitude 10° 14:47:51 10° 152° (SSE) 1,814 5.4 -6.7°
Sets 14:50:04 0° 158° (SSE) 2,709 6.4 -7.1°
